STARLINK-1167, 45071

Orbit data source: Space-Track

STARLINK-1167, 45071 is a payload satellite owned by SpaceX/Seattle (US) in LEO that was launched on Wed, 29 Jan 2020 UTC via an FALCON 9 launch vehicle from the Air Force Eastern Test Range (AFETR). Payloads include a variety of satellites, spacecraft, and rockets equipped with specific instruments for various scientific and technological missions. These include communications satellites like Starlink; space stations such as the ISS; scientific satellites like the Hubble; Earth observation satellites from companies like Planet Labs, Umbra, and HawkEye 360; GPS; miniature CubeSats for education and research; and military/defense satellites.

Loading next visibility...
STARLINK-1167 details
Identifier
45071, 2020-006AD
Orbit
LEO
Last TLE update22 hours ago
Origin
Flag of USSpaceX/Seattle (US)
ManufacturerSpaceX/Seattle
MissionOperational Commercial Communications
Bus & MotorSTARLINK, Unknown motor
Mass260 kg wet, ~248 kg dry
Launch date (UTC)
2020-01-29 (5 years ago)
Launch vehicle
FALCON 9
Launch site
Air Force Eastern Test Range (AFETR)
Object type
Payload
Rocket body
Debris
Shape & HBRBox + 1 Pan, 8.86 m
Radar Cross Section13.562 m², Large (>1 m²)

Expand to show TLE details & history

TLE from 22 hours ago
0 STARLINK-1167
1 45071U 20006AD  24360.50684904 -.00000438  00000-0 -10481-4 0  9991
2 45071  53.0554  78.1849 0001554  93.7808 266.3358 15.06389249270883
Epoch: 2024-12-25T12:09Z
Definitive object data (Epoch: 2024-12-25T12:09:51.757Z)
Latitude-0.00006°
Longitude161.21959°
Altitude548.193 km
Speed7.589 km/s
True Right ascension05h 12m 44s
True Declination0° 00' 00"
Sunlit
Object was in full shadow at TLE epoch
Visualization TLE readout
Latitude19.11576°
Longitude172.0527°
Altitude547.305 km
Speed7.591 km/s
Apparent Right ascension02h 51m 48s
Apparent Declination-17° 10' 37"
Sunlit
Object is in full shadow
Visualization observer readout
Local Sidereal Time09:55:00
Azimuth266.29° W
Elevation-22.892°
Doppler factor1
Orbital elements
Apogee altitude548.591 km
Perigee altitude546.439 km
Semi-major axis6,925.652 km
Eccentricity0.0001554
Inclination53.0554°
RAAN78.1849°
Arg. of periapsis93.7808°
True anomaly266.31803°
Mean anomaly266.3358°
Eccentric anomaly266.32691°
Mean motion3.76576 °/min
BSTAR-0.000010481
Orbital period95.6 mins
Loading maneuver chart data...
Loading historical data...
Loading historical data...
Loading historical data...
Loading historical data...
Loading historical data...
Loading historical data...
Loading historical data...

STARLINK-1167 Visibility forecast

Observer location: undefined°, undefined

Span
Click to sort rows by Start time (UTC) header in descending order
Start Az.
Max El. time (UTC)
Max El. Az.
Max El.
End time (UTC)
End Az.
4 mins2024-12-26 10:46:48.093Z318.715° NNW2024-12-26 10:48:48.093Z348.958° N13.886°2024-12-26 10:50:48.093Z19.772° NNE
6 mins2024-12-26 14:07:48.093Z331.718° NNW2024-12-26 14:09:48.093Z16.122° NNE32.449°2024-12-26 14:13:48.093Z102.303° ESE
5 mins2024-12-26 15:47:48.093Z271.571° WNW2024-12-26 15:49:48.093Z223.612° SW26.177°2024-12-26 15:52:48.093Z170.844° S
6 mins2024-12-27 07:19:48.093Z204.493° SW2024-12-27 07:22:48.093Z117.713° SE37.178°2024-12-27 07:25:48.093Z61.959° ENE
5 mins2024-12-27 08:59:48.093Z282.893° WNW2024-12-27 09:01:48.093Z322.239° NNW25.222°2024-12-27 09:04:48.093Z25.224° NE
|